FW7086 Weather Reports


Display with metric or nautical units.
time (UTC)temp
F
wind
direction
speed
MPH
gust
MPH
rain 1hr
in
rain 24hr
in
rain mn
in
humidity
%
barometer
mb
20260508005531 55 161 0.0 0.0 0.00 0.02 0.02 63 1011.0
20260508005028 55 170 0.0 0.0 0.00 0.02 0.02 61 1011.2
20260508004524 56 170 0.0 0.0 0.00 0.02 0.02 60 1010.9
20260508004021 56 215 0.0 1.0 0.00 0.02 0.02 59 1011.2
20260508003517 56 186 0.0 0.0 0.00 0.02 0.02 59 1011.2
20260508003015 57 189 1.0 1.0 0.00 0.02 0.02 58 1011.0
20260508002511 57 153 1.0 2.0 0.00 0.02 0.02 58 1010.9
20260508002008 57 186 1.0 2.0 0.00 0.02 0.02 58 1010.8
20260508001504 57 195 1.0 1.0 0.00 0.02 0.02 58 1011.0
20260508001001 57 295 0.0 0.0 0.00 0.02 0.02 58 1011.0
20260508000457 58 218 2.0 3.0 0.00 0.02 0.02 56 1010.9
20260507235953 58 232 1.0 1.0 0.00 0.02 0.02 56 1010.8
20260507235445 58 166 1.0 2.0 0.00 0.02 0.02 56 1010.8
20260507234942 58 132 1.0 2.0 0.00 0.02 0.02 56 1010.8
20260507234438 58 227 3.0 4.0 0.00 0.02 0.02 56 1010.7
20260507233935 58 172 0.0 1.0 0.00 0.02 0.02 57 1010.8
20260507233432 58 201 2.0 2.0 0.00 0.02 0.02 57 1010.8
20260507232930 57 168 1.0 1.0 0.00 0.02 0.02 59 1011.0
20260507232426 57 174 3.0 3.0 0.00 0.02 0.02 61 1011.0
20260507231924 57 231 1.0 2.0 0.00 0.02 0.02 64 1010.8
20260507231420 57 169 2.0 3.0 0.00 0.02 0.02 65 1010.9
20260507230916 56 187 3.0 3.0 0.00 0.02 0.02 66 1011.2
20260507230414 56 219 3.0 4.0 0.00 0.02 0.02 67 1011.2
20260507225914 56 219 4.0 4.0 0.00 0.02 0.02 67 1011.4
20260507225410 56 158 4.0 4.0 0.00 0.02 0.02 68 1011.4
20260507224907 55 168 4.0 6.0 0.00 0.02 0.02 68 1011.5
20260507224403 55 177 0.0 1.0 0.00 0.02 0.02 68 1011.4
20260507223900 56 182 5.0 6.0 0.00 0.02 0.02 65 1011.5
20260507223356 56 146 3.0 3.0 0.00 0.02 0.02 63 1011.5
20260507222853 55 236 1.0 1.0 0.00 0.02 0.02 63 1011.8
20260507222349 55 187 1.0 1.0 0.00 0.02 0.02 66 1011.6
20260507221846 55 273 1.0 1.0 0.00 0.02 0.02 70 1011.9
20260507221343 52 269 2.0 3.0 0.00 0.02 0.02 72 1012.1
20260507220838 51 303 4.0 6.0 0.00 0.02 0.02 74 1012.1
20260507220337 51 284 1.0 2.0 0.00 0.02 0.02 78 1012.7
20260507215833 51 345 1.0 1.0 0.00 0.02 0.02 80 1012.3
20260507215331 51 297 3.0 3.0 0.00 0.02 0.02 81 1012.2
20260507214828 51 326 2.0 2.0 0.05 0.02 0.02 81 1012.2
20260507214326 51 343 4.0 6.0 0.05 0.02 0.02 80 1012.2
20260507213825 51 7 3.0 3.0 0.07 0.01 0.01 79 1012.0
20260507213323 52 47 2.0 2.0 0.07 0.01 0.01 76 1011.9
20260507212819 53 332 9.0 13.0 0.00 0.00 0.00 70 1012.2
20260507212315 55 309 3.0 4.0 0.00 0.00 0.00 63 1011.9
20260507211812 58 357 5.0 9.0 0.00 0.00 0.00 49 1012.0
20260507211309 59 354 2.0 2.0 0.00 0.00 0.00 51 1011.7
20260507210806 59 1 2.0 2.0 0.00 0.00 0.00 51 1011.3
20260507210302 59 228 4.0 7.0 0.00 0.00 0.00 50 1011.4
20260507205759 58 206 4.0 6.0 0.00 0.00 0.00 51 1011.5
20260507205256 59 178 2.0 4.0 0.00 0.00 0.00 51 1011.4
20260507204752 59 203 1.0 3.0 0.00 0.00 0.00 51 1011.5
20260507204250 60 200 5.0 7.0 0.00 0.00 0.00 50 1011.3
20260507203747 61 187 4.0 4.0 0.00 0.00 0.00 48 1011.2
20260507203245 60 341 1.0 1.0 0.00 0.00 0.00 49 1011.3
20260507202741 61 211 3.0 4.0 0.00 0.00 0.00 47 1011.5
20260507202237 60 282 4.0 7.0 0.00 0.00 0.00 49 1011.6
20260507201732 61 283 5.0 6.0 0.00 0.00 0.00 48 1011.7
20260507201229 60 164 6.0 10.0 0.00 0.00 0.00 50 1012.0
20260507200725 60 213 6.0 8.0 0.00 0.00 0.00 49 1011.9
20260507200221 60 63 2.0 3.0 0.00 0.00 0.00 49 1012.0
20260507195718 60 271 3.0 4.0 0.00 0.00 0.00 49 1012.2
20260507195215 60 159 8.0 14.0 0.00 0.00 0.00 48 1012.2
20260507194712 59 169 4.0 6.0 0.00 0.00 0.00 50 1012.2
20260507194208 59 205 3.0 4.0 0.00 0.00 0.00 50 1012.3
20260507193705 61 221 5.0 9.0 0.00 0.00 0.00 47 1012.5
20260507193202 59 189 5.0 7.0 0.00 0.00 0.00 49 1012.5
20260507192658 59 237 7.0 10.0 0.00 0.00 0.00 47 1012.5
20260507192155 60 148 6.0 8.0 0.00 0.00 0.00 46 1012.7
20260507191650 60 200 11.0 16.0 0.00 0.00 0.00 45 1012.7
20260507191148 59 226 6.0 8.0 0.00 0.00 0.00 43 1012.9
20260507190645 60 160 7.0 9.0 0.00 0.00 0.00 42 1012.6
20260507190144 61 207 10.0 15.0 0.00 0.00 0.00 41 1012.7
20260507185642 60 191 9.0 14.0 0.00 0.00 0.00 40 1012.6
20260507185138 60 197 4.0 6.0 0.00 0.00 0.00 40 1012.9
20260507184636 60 11 6.0 10.0 0.00 0.00 0.00 39 1012.9
20260507184134 60 313 5.0 7.0 0.00 0.00 0.00 40 1012.7
20260507183629 61 188 6.0 7.0 0.00 0.00 0.00 38 1013.2
20260507183126 59 192 4.0 4.0 0.00 0.00 0.00 38 1013.0
20260507182623 60 181 9.0 13.0 0.00 0.00 0.00 37 1013.2
20260507182119 59 209 4.0 6.0 0.00 0.00 0.00 38 1013.2
20260507181616 60 206 3.0 3.0 0.00 0.00 0.00 38 1013.0
20260507181112 59 219 4.0 6.0 0.00 0.00 0.00 38 1013.2
20260507180609 59 168 3.0 4.0 0.00 0.00 0.00 38 1013.5
20260507180106 59 286 3.0 6.0 0.00 0.00 0.00 39 1013.5
20260507175602 59 216 9.0 13.0 0.00 0.00 0.00 38 1013.7
20260507175059 60 188 8.0 9.0 0.00 0.00 0.00 37 1013.9
20260507174556 60 181 5.0 7.0 0.00 0.00 0.00 36 1014.0
20260507174054 59 231 4.0 8.0 0.00 0.00 0.00 37 1014.0
20260507173551 59 166 8.0 9.0 0.00 0.00 0.00 36 1013.9
20260507173048 60 258 11.0 14.0 0.00 0.00 0.00 35 1014.1
20260507172544 60 212 4.0 6.0 0.00 0.00 0.00 39 1014.3
20260507172041 60 186 3.0 3.0 0.00 0.00 0.00 37 1014.3
20260507171536 58 148 6.0 9.0 0.00 0.00 0.00 38 1014.4
20260507171034 59 190 4.0 4.0 0.00 0.00 0.00 37 1014.5
20260507170530 58 192 5.0 7.0 0.00 0.00 0.00 37 1014.6
20260507170027 58 219 3.0 4.0 0.00 0.00 0.00 36 1014.7
20260507165523 57 263 5.0 8.0 0.00 0.00 0.00 37 1015.0
20260507165020 58 171 2.0 3.0 0.00 0.00 0.00 38 1014.7
20260507164516 58 197 4.0 6.0 0.00 0.00 0.00 37 1014.9
20260507164013 58 230 4.0 4.0 0.00 0.00 0.00 36 1014.9
20260507163510 56 239 1.0 2.0 0.00 0.00 0.00 38 1015.1
20260507163008 56 186 3.0 6.0 0.00 0.00 0.00 37 1015.4
20260507162503 56 259 3.0 3.0 0.00 0.00 0.00 38 1015.4
20260507162000 56 193 3.0 4.0 0.00 0.00 0.00 38 1015.3
20260507161456 56 223 4.0 6.0 0.00 0.00 0.00 37 1015.4
20260507160953 56 205 4.0 6.0 0.00 0.00 0.00 37 1015.6
20260507160449 56 206 8.0 10.0 0.00 0.00 0.00 38 1015.6
20260507155944 55 118 1.0 1.0 0.00 0.00 0.00 39 1015.9
20260507155441 56 240 1.0 1.0 0.00 0.00 0.00 39 1015.9
20260507154938 55 302 1.0 1.0 0.00 0.00 0.00 41 1015.9
20260507154435 55 79 1.0 2.0 0.00 0.00 0.00 38 1015.9
20260507153932 55 242 2.0 2.0 0.00 0.00 0.00 40 1016.0
20260507153429 53 159 4.0 4.0 0.00 0.00 0.00 40 1016.1
20260507152925 53 6 0.0 0.0 0.00 0.00 0.00 42 1016.3
20260507152421 54 19 2.0 3.0 0.00 0.00 0.00 41 1016.2
20260507151917 54 177 2.0 3.0 0.00 0.00 0.00 41 1016.3
20260507151414 53 48 2.0 2.0 0.00 0.00 0.00 41 1016.3
20260507150911 53 233 1.0 2.0 0.00 0.00 0.00 42 1016.3
20260507150408 52 234 2.0 2.0 0.00 0.00 0.00 42 1016.5
20260507145904 54 196 1.0 1.0 0.00 0.00 0.00 41 1016.4
20260507145400 51 289 2.0 2.0 0.00 0.00 0.00 42 1016.5
20260507144857 52 134 2.0 3.0 0.00 0.00 0.00 42 1016.4
20260507144354 51 146 3.0 4.0 0.00 0.00 0.00 44 1016.9
20260507143851 52 107 3.0 6.0 0.00 0.00 0.00 43 1016.9
20260507143348 51 213 2.0 3.0 0.00 0.00 0.00 44 1017.0
20260507142844 51 190 3.0 3.0 0.00 0.00 0.00 44 1017.0
20260507142341 50 303 0.0 1.0 0.00 0.00 0.00 47 1017.0
20260507141838 49 203 1.0 2.0 0.00 0.00 0.00 46 1017.0
20260507141334 49 217 2.0 2.0 0.00 0.00 0.00 47 1016.8
20260507140831 49 221 0.0 1.0 0.00 0.00 0.00 49 1016.9
20260507140328 48 222 0.0 0.0 0.00 0.00 0.00 49 1016.9
20260507135826 50 320 0.0 1.0 0.00 0.00 0.00 48 1017.1
20260507135322 50 222 0.0 0.0 0.00 0.00 0.00 48 1017.3
20260507134819 48 231 0.0 1.0 0.00 0.00 0.00 49 1017.1
20260507134315 48 312 0.0 0.0 0.00 0.00 0.00 50 1017.3
20260507133811 48 277 3.0 3.0 0.00 0.00 0.00 49 1017.4
20260507133307 48 317 3.0 4.0 0.00 0.00 0.00 50 1017.2
20260507132806 47 70 1.0 1.0 0.00 0.00 0.00 52 1017.3
20260507132306 46 333 2.0 2.0 0.00 0.00 0.00 51 1017.4
20260507131759 46 140 1.0 1.0 0.00 0.00 0.00 53 1017.1
20260507131256 46 308 0.0 1.0 0.00 0.00 0.00 55 1017.3
20260507130752 45 324 0.0 1.0 0.00 0.00 0.00 55 1017.3
20260507130250 45 12 0.0 0.0 0.00 0.00 0.00 54 1017.3
20260507125749 45 178 2.0 2.0 0.00 0.00 0.00 54 1017.2
20260507125246 45 233 1.0 1.0 0.00 0.00 0.00 55 1017.3
20260507124743 44 343 0.0 0.0 0.00 0.00 0.00 55 1017.1
20260507124239 45 318 0.0 0.0 0.00 0.00 0.00 55 1017.2
20260507123738 46 223 2.0 2.0 0.00 0.00 0.00 53 1017.2
20260507123235 45 238 2.0 2.0 0.00 0.00 0.00 56 1017.2
20260507122730 44 39 0.0 0.0 0.00 0.00 0.00 57 1017.1
20260507122226 44 298 0.0 1.0 0.00 0.00 0.00 58 1017.1
20260507121722 44 81 0.0 0.0 0.00 0.00 0.00 59 1017.0
20260507121218 43 8 0.0 0.0 0.00 0.00 0.00 61 1017.1
20260507120714 43 219 2.0 2.0 0.00 0.00 0.00 61 1017.0
20260507120212 42 74 0.0 0.0 0.00 0.00 0.00 63 1017.1
20260507115708 42 293 0.0 0.0 0.00 0.00 0.00 63 1017.2
20260507115203 42 354 0.0 0.0 0.00 0.00 0.00 64 1017.0
20260507114659 41 301 0.0 0.0 0.00 0.00 0.00 66 1016.8
20260507114157 41 197 1.0 1.0 0.00 0.00 0.00 66 1017.0
20260507113654 41 12 0.0 0.0 0.00 0.00 0.00 68 1016.7
20260507113151 40 161 0.0 0.0 0.00 0.00 0.00 69 1016.9
20260507112649 39 321 0.0 0.0 0.00 0.00 0.00 72 1016.9
20260507112145 38 321 0.0 0.0 0.00 0.00 0.00 74 1016.9
20260507111643 37 321 0.0 0.0 0.00 0.00 0.00 76 1016.8
20260507111139 36 321 0.0 0.0 0.00 0.00 0.00 79 1016.9
20260507110635 35 321 0.0 0.0 0.00 0.00 0.00 80 1016.8
20260507110132 35 321 0.0 0.0 0.00 0.00 0.00 80 1016.8
20260507105629 34 321 0.0 0.0 0.00 0.00 0.00 80 1016.8
20260507105125 34 321 0.0 0.0 0.00 0.00 0.00 80 1016.5
20260507104623 35 321 0.0 0.0 0.00 0.00 0.00 79 1016.5
20260507104119 35 321 0.0 0.0 0.00 0.00 0.00 79 1016.4
20260507103615 35 321 0.0 0.0 0.00 0.00 0.00 80 1016.5
20260507103112 34 321 0.0 0.0 0.00 0.00 0.00 80 1016.7
20260507102608 35 321 0.0 0.0 0.00 0.00 0.00 80 1016.5
20260507102104 35 321 0.0 0.0 0.00 0.00 0.00 80 1016.5
20260507101601 35 321 0.0 0.0 0.00 0.00 0.00 80 1016.7
20260507101056 35 254 0.0 0.0 0.00 0.00 0.00 79 1016.4
20260507100554 35 185 0.0 0.0 0.00 0.00 0.00 80 1016.7
20260507100052 35 185 0.0 0.0 0.00 0.00 0.00 80 1016.8
20260507095549 34 185 0.0 0.0 0.00 0.00 0.00 81 1016.5
20260507095046 34 185 0.0 0.0 0.00 0.00 0.00 80 1016.8
20260507094542 34 185 0.0 0.0 0.00 0.00 0.00 79 1016.8
20260507094039 34 185 0.0 0.0 0.00 0.00 0.00 78 1016.7
20260507093537 35 185 0.0 0.0 0.00 0.00 0.00 77 1016.8
20260507093035 35 185 0.0 0.0 0.00 0.00 0.00 77 1016.5
20260507092531 35 185 0.0 0.0 0.00 0.00 0.00 76 1016.7
20260507092028 35 185 0.0 0.0 0.00 0.00 0.00 76 1016.4
20260507091525 35 185 0.0 0.0 0.00 0.00 0.00 75 1016.4
20260507091021 35 185 0.0 0.0 0.00 0.00 0.00 75 1016.7
20260507090517 35 185 0.0 0.0 0.00 0.00 0.00 74 1016.7
20260507090014 36 185 0.0 0.0 0.00 0.00 0.00 73 1016.8
20260507085511 36 185 0.0 0.0 0.00 0.00 0.00 73 1016.7
20260507085008 37 185 0.0 0.0 0.00 0.00 0.00 72 1016.5
20260507084504 37 185 0.0 0.0 0.00 0.00 0.00 71 1016.8
20260507084001 38 185 0.0 0.0 0.00 0.00 0.00 70 1016.8
20260507083457 38 185 0.0 0.0 0.00 0.00 0.00 69 1016.8
20260507082954 38 307 0.0 0.0 0.00 0.00 0.00 69 1016.8
20260507082450 38 336 0.0 0.0 0.00 0.00 0.00 69 1016.7
20260507081947 38 331 0.0 0.0 0.00 0.00 0.00 68 1016.4
20260507081443 38 327 0.0 0.0 0.00 0.00 0.00 67 1016.8
20260507080940 38 330 0.0 0.0 0.00 0.00 0.00 67 1016.7
20260507080436 39 333 0.0 0.0 0.00 0.00 0.00 66 1016.8
20260507075931 39 294 1.0 1.0 0.00 0.00 0.00 66 1016.7
20260507075428 39 340 0.0 0.0 0.00 0.00 0.00 66 1016.7
20260507074925 39 306 0.0 0.0 0.00 0.00 0.00 66 1016.7
20260507074422 39 347 0.0 0.0 0.00 0.00 0.00 67 1016.7
20260507073920 39 345 0.0 0.0 0.00 0.00 0.00 65 1016.8
20260507073416 39 177 1.0 1.0 0.00 0.00 0.00 64 1016.8
20260507072913 39 29 0.0 0.0 0.00 0.00 0.00 65 1016.7
20260507072410 39 292 0.0 0.0 0.00 0.00 0.00 65 1016.8
20260507071908 39 345 0.0 0.0 0.00 0.00 0.00 66 1016.9
20260507071405 39 338 0.0 0.0 0.00 0.00 0.00 65 1017.0
20260507070900 39 336 0.0 0.0 0.00 0.00 0.00 65 1017.0
20260507070358 39 318 0.0 0.0 0.00 0.00 0.00 66 1017.0
20260507065855 39 350 0.0 0.0 0.00 0.00 0.00 66 1017.0
20260507065351 38 268 0.0 0.0 0.00 0.00 0.00 67 1017.1
20260507064849 37 350 0.0 0.0 0.00 0.00 0.00 70 1017.1
20260507064347 38 350 0.0 0.0 0.00 0.00 0.00 68 1017.1
20260507063845 38 342 0.0 0.0 0.00 0.00 0.00 68 1017.2
20260507063341 38 348 0.0 0.0 0.00 0.00 0.00 68 1017.1
20260507062838 38 350 0.0 0.0 0.00 0.00 0.00 68 1017.0
20260507062335 38 345 0.0 0.0 0.00 0.00 0.00 68 1017.1
20260507061833 39 345 0.0 0.0 0.00 0.00 0.00 67 1017.3
20260507061331 39 345 0.0 0.0 0.00 0.00 0.00 66 1017.3
20260507060829 39 345 0.0 0.0 0.00 0.00 0.00 65 1017.3
20260507060325 39 340 0.0 0.0 0.00 0.00 0.00 65 1017.3
20260507055822 39 350 0.0 0.0 0.00 0.00 0.00 66 1017.4
20260507055317 40 339 0.0 0.0 0.00 0.00 0.00 64 1017.3
20260507054814 39 312 0.0 0.0 0.00 0.00 0.00 65 1017.2
20260507054310 39 345 0.0 0.0 0.00 0.00 0.00 65 1017.2
20260507053808 40 7 0.0 0.0 0.00 0.00 0.00 64 1017.3
20260507053305 41 7 0.0 0.0 0.00 0.00 0.00 63 1017.0
20260507052804 41 320 0.0 0.0 0.00 0.00 0.00 62 1017.3
20260507052300 42 317 0.0 0.0 0.00 0.00 0.00 60 1017.1
20260507051759 42 282 0.0 0.0 0.00 0.00 0.00 57 1017.2
20260507051255 42 325 0.0 0.0 0.00 0.00 0.00 57 1017.2
20260507050752 42 309 0.0 0.0 0.00 0.00 0.00 57 1017.2
20260507050248 42 330 0.0 0.0 0.00 0.00 0.00 56 1017.4
20260507045745 43 328 0.0 0.0 0.00 0.00 0.00 56 1017.3
20260507045241 43 257 1.0 1.0 0.00 0.00 0.00 54 1017.2
20260507044739 43 332 0.0 0.0 0.00 0.00 0.00 54 1017.3
20260507044235 43 335 0.0 0.0 0.00 0.00 0.00 54 1017.2
20260507043731 44 185 1.0 1.0 0.00 0.00 0.00 53 1017.3
20260507043228 44 267 0.0 1.0 0.00 0.00 0.00 54 1017.2
20260507042725 44 340 0.0 0.0 0.00 0.00 0.00 53 1017.3
20260507042219 44 28 0.0 0.0 0.00 0.00 0.00 52 1017.1
20260507041717 45 9 0.0 0.0 0.00 0.00 0.00 51 1017.0
20260507041214 45 279 2.0 2.0 0.00 0.00 0.00 50 1017.2
20260507040711 45 323 0.0 1.0 0.00 0.00 0.00 51 1017.1
20260507040207 45 303 2.0 2.0 0.00 0.00 0.00 50 1017.0
20260507035703 45 2 0.0 0.0 0.00 0.00 0.00 50 1017.1
20260507035159 46 331 0.0 1.0 0.00 0.00 0.00 49 1017.2
20260507034656 45 281 1.0 1.0 0.00 0.00 0.00 49 1017.3
20260507034153 45 341 0.0 1.0 0.00 0.00 0.00 49 1017.2
20260507033652 46 327 1.0 1.0 0.00 0.00 0.00 48 1017.3
20260507033148 46 281 1.0 1.0 0.00 0.00 0.00 48 1017.3
20260507032646 46 304 1.0 3.0 0.00 0.00 0.00 48 1017.3
20260507032142 46 328 1.0 1.0 0.00 0.00 0.00 47 1017.3
20260507031639 47 306 1.0 1.0 0.00 0.00 0.00 46 1017.4
20260507031135 47 277 2.0 7.0 0.00 0.00 0.00 47 1017.3
20260507030632 47 339 1.0 2.0 0.00 0.00 0.00 46 1017.3
20260507030130 47 49 2.0 2.0 0.00 0.00 0.00 46 1017.1
20260507025627 47 312 2.0 2.0 0.00 0.00 0.00 45 1017.3
20260507025124 47 2 2.0 3.0 0.00 0.00 0.00 46 1017.2
20260507024622 47 309 3.0 4.0 0.00 0.00 0.00 46 1017.1
20260507024119 47 338 1.0 2.0 0.00 0.00 0.00 45 1017.2
20260507023614 47 353 1.0 2.0 0.00 0.00 0.00 45 1017.1
20260507023112 47 291 2.0 4.0 0.00 0.00 0.00 45 1017.0
20260507022609 48 268 0.0 1.0 0.00 0.00 0.00 45 1016.9
20260507022104 48 234 1.0 1.0 0.00 0.00 0.00 45 1016.8
20260507021600 48 318 2.0 4.0 0.00 0.00 0.00 44 1016.5
20260507021056 48 95 2.0 2.0 0.00 0.00 0.00 44 1016.5
20260507020555 48 77 3.0 6.0 0.00 0.00 0.00 44 1016.5
20260507020051 48 305 3.0 3.0 0.00 0.00 0.00 43 1016.4
20260507015549 48 297 4.0 4.0 0.00 0.00 0.00 42 1016.5
20260507015046 48 332 3.0 3.0 0.00 0.00 0.00 44 1016.3
20260507014543 48 301 4.0 6.0 0.00 0.00 0.00 43 1016.3
20260507014039 48 43 1.0 1.0 0.00 0.00 0.00 44 1016.3
20260507013536 49 37 3.0 3.0 0.00 0.00 0.00 43 1016.2
20260507013033 49 303 2.0 2.0 0.00 0.00 0.00 44 1016.2
20260507012530 49 297 1.0 1.0 0.00 0.00 0.00 44 1016.2
20260507012026 49 304 1.0 1.0 0.00 0.00 0.00 44 1016.3
20260507011524 49 306 2.0 2.0 0.00 0.00 0.00 43 1016.3
20260507011019 50 288 2.0 3.0 0.00 0.00 0.00 43 1016.3
20260507010514 50 305 1.0 2.0 0.00 0.00 0.00 43 1016.1